Regional Weather Roundup
Issued by NWS

Current Version | Previous Version | Text Only | Print | Product List | Glossary On
Versions: 1 2 3 4 5 6 7 8 9 10 11 12 13 14 15 16 17 18 19 20 21 22 23 24 25 26 27 28 29 30 31 32 33 34 35 36 37 38 39 40 41 42 43 44 45 46 47 48 49 50
000
ASUS43 KMKX 080259
RWRWI

WISCONSIN REGIONAL WEATHER ROUNDUP
NATIONAL WEATHER SERVICE MILWAUKEE/SULLIVAN WI
900 PM CST TUE FEB 07 2023

NOTE: "FAIR" INDICATES FEW OR NO CLOUDS BELOW 12,000 FEET WITH NO
SIGNIFICANT WEATHER AND/OR OBSTRUCTIONS TO VISIBILITY.

WIZ001-002-006>008-014>016-023>028-080400-
NORTHWEST WISCONSIN

CITY           SKY/WX    TMP DP  RH WIND       PRES   REMARKS
SUPERIOR ARPT  CLEAR     26  18  73 CALM      30.04R
ASHLAND        CLEAR     26  17  68 SW6       30.04F WCI  19
HAYWARD        CLEAR     24  17  74 S5        30.05F WCI  18
SIREN          CLEAR     29  20  68 SW7       30.08S WCI  22
CUMBERLAND     CLEAR     25  23  93 SW8       30.08S WCI  16
RICE LAKE      CLEAR     21  19  94 S3        30.10F
CHETEK         CLEAR     28  22  77 SW3       30.09F
LADYSMITH      CLEAR     26  22  85 CALM      30.10R
EAU CLAIRE     NOT AVBL
MENOMONIE      CLEAR     30  27  91 SW6       30.13S WCI  24
NEW RICHMOND   CLEAR     26  25  93 S5        30.11F WCI  21
OSCEOLA        CLEAR     27  24  87 S3        30.13F
$$

WIZ003>005-009-010-017-018-080400-
NORTH CENTRAL WISCONSIN

CITY           SKY/WX    TMP DP  RH WIND       PRES   REMARKS
MANITOWISH WTR CLEAR     25  18  74 SW5       30.02F WCI  19
ARBOR VITAE    CLEAR     27  20  73 W6        30.03R WCI  20
WOODRUFF       CLEAR     27  20  73 W6        30.03R WCI  20
RHINELANDER    CLEAR     25  17  72 W8        30.04R WCI  16
EAGLE RIVER    CLEAR     24  17  72 W6        30.02R WCI  17
LAND O LAKES   CLEAR     27  18  69 CALM      30.02R
PHILLIPS       CLEAR     26  17  71 CALM      30.05R
TOMAHAWK       CLEAR     28  19  70 W3        30.06R
MEDFORD        CLEAR     27  19  72 W5        30.07R WCI  21
MERRILL        CLEAR     27  19  70 W6        30.06R WCI  21
$$

WIZ029-030-035-036-043>047-080400-
CENTRAL WISCONSIN

CITY           SKY/WX    TMP DP  RH WIND       PRES   REMARKS
WAUSAU         CLEAR     29  18  63 W7        30.07R WCI  22
MOSINEE        CLEAR     28  19  69 W7        30.10R WCI  21
MARSHFIELD     CLEAR     28  21  75 W8        30.09R WCI  20
STEVENS POINT  CLEAR     32  20  61 W5        30.11R WCI  28
WAUPACA        CLEAR     34  25  69 W6        30.12R WCI  29
WAUTOMA        CLEAR     31  25  78 W10       30.13R WCI  22
WISC RAPIDS    CLEAR     30  22  72 W6        30.12R WCI  24
CAMP DOUGLAS   CLEAR     27  19  74 W8        30.13R WCI  18
$$

WIZ011>013-019>022-031-037>040-048>050-080400-
NORTHEAST WISCONSIN

CITY           SKY/WX    TMP DP  RH WIND       PRES   REMARKS
ANTIGO         CLEAR     27  19  73 W6        30.05S WCI  20
SHAWANO        NOT AVBL
OCONTO           N/A     32  27  81 W8        30.08R WCI  25
STURGEON BAY   PTCLDY    33  27  78 W9        30.07R WCI  25
GREEN BAY      CLEAR     33  26  75 W9        30.09R WCI  25
MANITOWOC      CLEAR     34  27  75 W10       30.10R WCI  26
APPLETON       CLEAR     30  25  80 W8        30.09R WCI  23
CLINTONVILLE   CLEAR     31  24  74 W7        30.11R WCI  24
OSHKOSH        CLEAR     33  25  72 W6        30.11R WCI  28
$$

WIZ032>034-041-042-053>061-080400-
SOUTHWEST WISCONSIN

CITY           SKY/WX    TMP DP  RH WIND       PRES   REMARKS
LA CROSSE      CLEAR     28  22  78 SW7       30.18R WCI  21
SPARTA         CLEAR     29  23  78 CALM      30.16R
VIROQUA        CLEAR     28  25  88 W6        30.16R WCI  22
BOSCOBEL       CLEAR     30  23  75 SW6       30.20R WCI  24
PRAIRIE DU CHI CLEAR     31  23  73 W5        30.21R WCI  26
PLATTEVILLE    CLEAR     30  24  77 W9        30.19R WCI  22
$$

WIZ056-057-062-063-064-067-068-080400-
SOUTH CENTRAL WISCONSIN

CITY           SKY/WX    TMP DP  RH WIND       PRES   REMARKS
REEDSBURG      CLEAR     31  23  72 W8        30.16R WCI  24
BARABOO/DELLS  CLEAR     32  26  77 W5        30.15R WCI  28
LONE ROCK      NOT AVBL
MINERAL POINT  NOT AVBL
MADISON        CLEAR     32  24  72 W3        30.15R
MIDDLETON      CLEAR     32  26  77 W6        30.16R WCI  26
WATERTOWN      CLEAR     31  24  75 W5        30.14R WCI  26
MONROE         CLEAR     31  25  81 W15       30.15R WCI  20
JANESVILLE     PTCLDY    32  27  80 W9        30.17R WCI  24
$$

WIZ051-052-058>065-066-070>072-080400-
SOUTHEAST WISCONSIN

CITY           SKY/WX    TMP DP  RH WIND       PRES   REMARKS
MILWAUKEE      CLEAR     37  25  61 W8        30.12R WCI  31
WAUKESHA       CLEAR     30  25  80 W7        30.13R WCI  23
MILWAUKEE/TIMM CLEAR     34  23  64 W9        30.12R WCI  26
RACINE         CLEAR     35  26  69 W7        30.15R WCI  29
KENOSHA        CLEAR     35  27  72 W10       30.14R WCI  27
FOND DU LAC    CLEAR     33  25  72 W7        30.12R WCI  27
SHEBOYGAN      CLEAR     36  27  69 W13G20    30.10R WCI  27
WEST BEND      CLEAR     34  27  75 W13G18    30.11R WCI  25
JUNEAU         CLEAR     31  25  79 W5        30.14R WCI  26
$$

LSZ147-162-080400-
LAKE SUPERIOR

STATION/POSITION TIME  TEMP    WIND        PRES    WAVE
                       AIR SEA DIR/SP/G            HT/PER
                 (UTC) (F)     (DEG/KT/KT) (MB)    (FT/S)
DEVILS ISLAND    0200   33     230/ 12/ 15 1017.3R
PORT WING        0240   31     200/  5/  9 1016.6F
SAXON HARBOR     0240   33     200/  6/ 10 1016.9F
$$

LMZ867-665-643>646-080400-
LAKE MICHIGAN

STATION/POSITION TIME  TEMP    WIND        PRES    WAVE
                       AIR SEA DIR/SP/G            HT/PER
                 (UTC) (F)     (DEG/KT/KT) (MB)    (FT/S)
CHAMBERS ISLAND  0240   34     180/  6/ 11   N/A
NORTHPORT PIER   0200          220/  3/  5   N/A
KEWAUNEE LAKESHO 0230   35     290/  7/ 11 1017.6R
SHEBOYGAN LAKESH 0200   37     280/  7/  8 1019.2R
PORT WASHINGTON  0230   37     270/  5/  8 1020.7R
MILWAUKEE LAKESH 0230   36     270/  5/  8   N/A
KENOSHA   LAKESH 0200   36        CALM     1020.3
$$

TC  - TEMPERATURE IN CELSIUS
VSB - VISIBILITY IN STATUTE MILES
WCI - WIND CHILL INDEX
HX  - HEAT INDEX




USA.gov is the U.S. government's official web portal to all federal, state and local government web resources and services.